| time (UTC) | temp F | wind direction | speed knots | gust knots | rain 1hr in | rain 24hr in | rain mn in | humidity % | barometer mb |
| 20260905211602 | 67 | 317 | 1.7 | 3.5 | 0.00 | 0.02 | 0.02 | 67 | 1011.3 |
| 20260905204611 | 68 | 23 | 1.7 | 7.0 | 0.00 | 0.02 | 0.02 | 65 | 1011.2 |
| 20260905203101 | 69 | 26 | 3.5 | 13.0 | 0.00 | 0.02 | 0.02 | 62 | 1011.1 |
| 20260905201553 | 69 | 17 | 1.7 | 7.8 | 0.00 | 0.02 | 0.02 | 66 | 1011.0 |
| 20260905200058 | 68 | 12 | 1.7 | 7.0 | 0.00 | 0.02 | 0.02 | 69 | 1011.0 |
| 20260905194600 | 68 | 352 | 2.6 | 7.0 | 0.00 | 0.02 | 0.02 | 69 | 1011.0 |
| 20260905193052 | 68 | 348 | 2.6 | 8.7 | 0.02 | 0.02 | 0.02 | 72 | 1011.0 |
| 20260905191549 | 68 | 94 | 1.7 | 7.8 | 0.02 | 0.02 | 0.02 | 74 | 1011.0 |
| 20260905190057 | 66 | 0 | 0.0 | 4.3 | 0.02 | 0.02 | 0.02 | 80 | 1011.0 |
| 20260905184557 | 66 | 29 | 0.9 | 7.0 | 0.02 | 0.02 | 0.02 | 78 | 1011.0 |
| 20260905183056 | 68 | 183 | 2.6 | 5.2 | 0.00 | 0.00 | 0.00 | 73 | 1010.8 |
| 20260905181548 | 66 | 338 | 1.7 | 7.8 | 0.00 | 0.00 | 0.00 | 78 | 1011.0 |
| 20260905180104 | 66 | 24 | 2.6 | 13.0 | 0.00 | 0.00 | 0.00 | 80 | 1011.0 |
| 20260905174555 | 67 | 21 | 4.3 | 7.8 | 0.00 | 0.03 | 0.00 | 79 | 1010.9 |
| 20260905173100 | 66 | 350 | 3.5 | 13.0 | 0.00 | 0.03 | 0.00 | 78 | 1010.9 |
| 20260905171546 | 68 | 43 | 3.5 | 9.6 | 0.00 | 0.03 | 0.00 | 71 | 1010.8 |
| 20260905164602 | 70 | 92 | 2.6 | 10.4 | 0.00 | 0.03 | 0.00 | 66 | 1010.7 |
| 20260905163101 | 68 | 355 | 2.6 | 7.0 | 0.00 | 0.03 | 0.00 | 72 | 1010.8 |
| 20260905161600 | 68 | 313 | 1.7 | 6.1 | 0.00 | 0.03 | 0.00 | 73 | 1011.0 |
| 20260905160056 | 67 | 37 | 2.6 | 7.8 | 0.00 | 0.03 | 0.00 | 75 | 1011.0 |
| 20260905154556 | 67 | 350 | 2.6 | 7.8 | 0.00 | 0.03 | 0.00 | 76 | 1011.1 |
| 20260905153100 | 66 | 96 | 2.6 | 7.8 | 0.00 | 0.03 | 0.00 | 80 | 1011.1 |
| 20260905151554 | 65 | 49 | 1.7 | 10.4 | 0.00 | 0.03 | 0.00 | 83 | 1011.2 |
| 20260905144600 | 65 | 325 | 3.5 | 9.6 | 0.00 | 0.03 | 0.00 | 83 | 1011.0 |
| 20260905143052 | 65 | 346 | 4.3 | 10.4 | 0.00 | 0.03 | 0.00 | 77 | 1010.9 |
| 20260905141558 | 66 | 41 | 5.2 | 11.3 | 0.00 | 0.03 | 0.00 | 75 | 1010.7 |
| 20260905140100 | 66 | 19 | 1.7 | 8.7 | 0.00 | 0.03 | 0.00 | 75 | 1010.5 |
| 20260905134601 | 66 | 13 | 0.9 | 11.3 | 0.00 | 0.03 | 0.00 | 76 | 1010.3 |
| 20260905133057 | 66 | 24 | 0.9 | 8.7 | 0.00 | 0.03 | 0.00 | 78 | 1010.2 |
| 20260905131550 | 66 | 63 | 2.6 | 7.8 | 0.00 | 0.03 | 0.00 | 78 | 1010.2 |
| 20260905130059 | 66 | 0 | 1.7 | 8.7 | 0.00 | 0.03 | 0.00 | 80 | 1010.0 |
| 20260905124558 | 65 | 0 | 1.7 | 7.0 | 0.00 | 0.03 | 0.00 | 82 | 1010.0 |
| 20260905123053 | 65 | 21 | 1.7 | 6.1 | 0.00 | 0.03 | 0.00 | 84 | 1009.9 |
| 20260905121548 | 64 | 0 | 0.0 | 3.5 | 0.00 | 0.03 | 0.00 | 86 | 1009.8 |
| 20260905120100 | 65 | 0 | 0.0 | 6.1 | 0.00 | 0.03 | 0.00 | 88 | 1009.8 |
| 20260905114558 | 63 | 0 | 0.0 | 2.6 | 0.00 | 0.03 | 0.00 | 94 | 1009.8 |
| 20260905113053 | 62 | 0 | 0.0 | 1.7 | 0.00 | 0.03 | 0.00 | 93 | 1009.8 |
| 20260905111548 | 62 | 0 | 0.0 | 1.7 | 0.00 | 0.03 | 0.00 | 94 | 1009.5 |
| 20260905110104 | 61 | 0 | 0.0 | 1.7 | 0.00 | 0.03 | 0.00 | 93 | 1009.4 |
| 20260905104556 | 61 | 0 | 0.0 | 3.5 | 0.00 | 0.03 | 0.00 | 93 | 1009.3 |
| 20260905103059 | 61 | 306 | 0.0 | 2.6 | 0.00 | 0.03 | 0.00 | 93 | 1009.0 |
| 20260905101606 | 61 | 0 | 0.0 | 2.6 | 0.00 | 0.03 | 0.00 | 94 | 1009.0 |
| 20260905100050 | 61 | 0 | 0.0 | 0.9 | 0.00 | 0.03 | 0.00 | 94 | 1008.9 |
| 20260905094559 | 61 | 0 | 0.0 | 2.6 | 0.00 | 0.03 | 0.00 | 94 | 1008.6 |
| 20260905093123 | 61 | 0 | 0.0 | 0.0 | 0.00 | 0.03 | 0.00 | 93 | 1008.6 |
| 20260905091604 | 61 | 0 | 0.0 | 0.9 | 0.00 | 0.03 | 0.00 | 91 | 1008.4 |
| 20260905090051 | 61 | 0 | 0.0 | 0.9 | 0.00 | 0.03 | 0.00 | 87 | 1008.4 |
| 20260905084548 | 61 | 0 | 0.0 | 0.0 | 0.00 | 0.03 | 0.00 | 85 | 1008.5 |
| 20260905083108 | 62 | 0 | 0.0 | 0.9 | 0.00 | 0.03 | 0.00 | 83 | 1008.3 |
| 20260905081558 | 62 | 0 | 0.0 | 2.6 | 0.00 | 0.03 | 0.00 | 82 | 1008.4 |
| 20260905074549 | 63 | 311 | 0.9 | 4.3 | 0.00 | 0.03 | 0.00 | 81 | 1008.4 |
| 20260905073100 | 62 | 311 | 0.9 | 4.3 | 0.00 | 0.03 | 0.00 | 81 | 1008.4 |
| 20260905071556 | 62 | 0 | 0.9 | 3.5 | 0.00 | 0.03 | 0.00 | 81 | 1008.5 |
| 20260905070111 | 63 | 345 | 0.9 | 3.5 | 0.00 | 0.03 | 0.00 | 80 | 1008.5 |
| 20260905064549 | 63 | 0 | 0.0 | 2.6 | 0.00 | 0.03 | 0.00 | 79 | 1008.5 |
| 20260905063059 | 63 | 0 | 0.0 | 4.3 | 0.00 | 0.03 | 0.00 | 78 | 1008.5 |
| 20260905061607 | 64 | 0 | 0.9 | 3.5 | 0.00 | 0.03 | 0.00 | 77 | 1008.6 |
| 20260905060053 | 64 | 269 | 2.6 | 5.2 | 0.00 | 0.03 | 0.00 | 76 | 1008.6 |
| 20260905054555 | 65 | 315 | 1.7 | 4.3 | 0.00 | 0.03 | 0.00 | 75 | 1008.7 |
| 20260905053059 | 65 | 296 | 2.6 | 7.0 | 0.00 | 0.03 | 0.00 | 74 | 1008.4 |
| 20260905051558 | 64 | 307 | 1.7 | 6.1 | 0.00 | 0.03 | 0.00 | 76 | 1008.6 |
| 20260905050055 | 64 | 325 | 0.9 | 4.3 | 0.00 | 0.03 | 0.00 | 76 | 1008.7 |
| 20260905044549 | 64 | 292 | 1.7 | 3.5 | 0.00 | 0.03 | 0.00 | 76 | 1008.8 |
| 20260905043058 | 64 | 0 | 0.9 | 5.2 | 0.00 | 0.03 | 0.00 | 74 | 1008.8 |
| 20260905041600 | 64 | 327 | 2.6 | 6.1 | 0.00 | 0.03 | 0.00 | 75 | 1008.7 |
| 20260905040057 | 65 | 314 | 1.7 | 5.2 | 0.00 | 0.03 | 0.00 | 73 | 1008.9 |
| 20260905034551 | 66 | 309 | 2.6 | 7.0 | 0.00 | 0.03 | 0.03 | 71 | 1009.0 |
| 20260905033105 | 65 | 290 | 2.6 | 6.1 | 0.00 | 0.03 | 0.03 | 73 | 1009.0 |
| 20260905031605 | 65 | 301 | 1.7 | 4.3 | 0.00 | 0.03 | 0.03 | 75 | 1008.9 |
| 20260905030056 | 65 | 300 | 0.9 | 3.5 | 0.00 | 0.03 | 0.03 | 73 | 1009.2 |
| 20260905024604 | 66 | 306 | 0.9 | 4.3 | 0.00 | 0.03 | 0.03 | 70 | 1009.1 |
| 20260905023058 | 67 | 360 | 1.7 | 6.1 | 0.00 | 0.03 | 0.03 | 68 | 1009.2 |
| 20260905021549 | 65 | 327 | 2.6 | 6.1 | 0.00 | 0.03 | 0.03 | 72 | 1009.2 |
| 20260905020059 | 64 | 0 | 0.0 | 0.9 | 0.00 | 0.03 | 0.03 | 79 | 1009.4 |
| 20260905014557 | 65 | 0 | 0.0 | 1.7 | 0.00 | 0.03 | 0.03 | 79 | 1009.4 |
| 20260905013053 | 66 | 184 | 0.0 | 1.7 | 0.00 | 0.03 | 0.03 | 73 | 1009.3 |
| 20260905011549 | 67 | 0 | 0.0 | 4.3 | 0.00 | 0.03 | 0.03 | 67 | 1009.5 |
| 20260905010058 | 66 | 269 | 1.7 | 5.2 | 0.00 | 0.03 | 0.03 | 72 | 1009.3 |
| 20260905004616 | 67 | 263 | 0.0 | 2.6 | 0.00 | 0.03 | 0.03 | 69 | 1009.4 |
| 20260905003055 | 68 | 0 | 0.0 | 1.7 | 0.00 | 0.03 | 0.03 | 66 | 1009.4 |
| 20260905001558 | 68 | 0 | 0.0 | 2.6 | 0.00 | 0.03 | 0.03 | 65 | 1009.5 |
| 20260905000055 | 69 | 306 | 0.9 | 2.6 | 0.00 | 0.03 | 0.03 | 63 | 1009.3 |
| 20260904234550 | 69 | 322 | 1.7 | 5.2 | 0.00 | 0.03 | 0.03 | 62 | 1009.2 |
| 20260904233047 | 70 | 316 | 2.6 | 6.1 | 0.00 | 0.03 | 0.03 | 62 | 1009.1 |
| 20260904231548 | 70 | 323 | 0.9 | 3.5 | 0.00 | 0.03 | 0.03 | 63 | 1009.2 |
| 20260904230128 | 70 | 316 | 0.9 | 3.5 | 0.00 | 0.03 | 0.03 | 64 | 1009.1 |
| 20260904224551 | 71 | 311 | 0.0 | 1.7 | 0.00 | 0.03 | 0.03 | 62 | 1009.0 |
| 20260904223052 | 72 | 0 | 0.0 | 2.6 | 0.00 | 0.03 | 0.03 | 61 | 1008.8 |
| 20260904221601 | 73 | 309 | 0.9 | 6.1 | 0.00 | 0.03 | 0.03 | 58 | 1008.9 |
| 20260904220101 | 73 | 321 | 1.7 | 7.0 | 0.00 | 0.03 | 0.03 | 58 | 1009.0 |
| 20260904214550 | 75 | 335 | 4.3 | 11.3 | 0.00 | 0.03 | 0.03 | 55 | 1008.8 |
| 20260904213051 | 75 | 306 | 4.3 | 8.7 | 0.00 | 0.03 | 0.03 | 56 | 1008.7 |